EW7146 Weather Reports


Display with metric or nautical units.
time (UTC)temp
F
wind
direction
speed
MPH
gust
MPH
rain 1hr
in
rain 24hr
in
rain mn
in
humidity
%
barometer
mb
20260904174630 56 51 0.0 3.0 0.00 0.13 0.13 73 1026.6
20260904174131 56 52 0.0 3.0 0.00 0.13 0.13 72 1026.6
20260904173635 57 94 0.0 1.0 0.00 0.13 0.13 75 1026.6
20260904173127 57 216 0.0 0.0 0.00 0.13 0.13 73 1026.5
20260904172626 57 216 0.0 1.0 0.00 0.13 0.13 72 1026.5
20260904172130 57 212 0.0 1.0 0.00 0.13 0.13 73 1026.5
20260904171629 57 324 0.0 1.0 0.00 0.13 0.13 74 1026.4
20260904171129 57 299 0.0 2.0 0.00 0.13 0.13 76 1026.3
20260904170629 57 258 0.0 2.0 0.00 0.13 0.13 80 1026.4
20260904170129 56 226 0.0 1.0 0.00 0.13 0.13 81 1026.3
20260904165626 55 340 0.0 1.0 0.00 0.13 0.13 82 1026.3
20260904165125 55 24 0.0 2.0 0.00 0.13 0.13 83 1026.2
20260904164627 55 24 0.0 2.0 0.00 0.13 0.13 84 1026.2
20260904164125 55 331 0.0 2.0 0.00 0.13 0.13 86 1026.2
20260904163629 55 261 0.0 1.0 0.00 0.13 0.13 88 1026.1
20260904163128 54 20 0.0 1.0 0.00 0.13 0.13 87 1026.2
20260904162628 54 20 0.0 1.0 0.00 0.13 0.13 88 1026.1
20260904162131 54 23 0.0 1.0 0.00 0.13 0.13 88 1026.1
20260904161628 53 47 0.0 1.0 0.00 0.13 0.13 87 1026.2
20260904161134 54 355 0.0 1.0 0.00 0.13 0.13 87 1026.3
20260904160627 54 34 0.0 1.0 0.00 0.13 0.13 90 1026.3
20260904160351 53 251 0.0 0.0 0.00 0.13 0.13 91 1026.2
20260904155628 53 251 0.0 1.0 0.00 0.13 0.13 92 1026.1
20260904155127 53 251 0.0 1.0 0.00 0.13 0.13 92 1026.2
20260904154627 52 251 0.0 0.0 0.00 0.13 0.13 93 1026.1
20260904154355 52 251 0.0 0.0 0.00 0.13 0.13 93 1026.1
20260904153627 51 251 0.0 0.0 0.00 0.13 0.13 93 1026.1
20260904153127 51 251 0.0 0.0 0.00 0.13 0.13 94 1026.1
20260904152628 51 251 0.0 0.0 0.00 0.13 0.13 94 1026.0
20260904152126 51 251 0.0 0.0 0.00 0.13 0.13 94 1026.0
20260904151848 51 251 0.0 2.0 0.00 0.13 0.13 94 1026.0
20260904151126 50 251 0.0 2.0 0.00 0.13 0.13 94 1026.0
20260904150854 50 259 0.0 1.0 0.00 0.13 0.13 94 1025.8
20260904150131 50 247 0.0 1.0 0.00 0.13 0.13 94 1025.8
20260904145627 50 247 0.0 1.0 0.00 0.13 0.13 94 1025.7
20260904145126 50 247 0.0 0.0 0.00 0.13 0.13 94 1025.8
20260904144625 50 247 0.0 0.0 0.00 0.13 0.13 94 1025.7
20260904144125 50 245 0.0 0.0 0.00 0.13 0.13 94 1025.6
20260904143626 50 247 0.0 0.0 0.00 0.13 0.13 94 1025.5
20260904143127 50 247 0.0 0.0 0.00 0.13 0.13 94 1025.6
20260904142625 49 245 0.0 0.0 0.00 0.13 0.13 94 1025.4
20260904142125 49 247 0.0 0.0 0.00 0.13 0.13 94 1025.5
20260904141625 49 245 0.0 0.0 0.00 0.13 0.13 94 1025.4
20260904141125 49 247 0.0 0.0 0.00 0.13 0.13 94 1025.4
20260904140852 49 247 0.0 0.0 0.00 0.13 0.13 94 1025.2
20260904140125 49 247 0.0 0.0 0.00 0.13 0.13 94 1025.2
20260904135626 49 247 0.0 0.0 0.00 0.13 0.13 94 1025.1
20260904135125 49 247 0.0 0.0 0.00 0.13 0.13 94 1025.1
20260904134626 49 245 0.0 0.0 0.01 0.13 0.13 94 1024.9
20260904134124 49 247 0.0 0.0 0.01 0.13 0.13 94 1024.9
20260904133852 49 247 0.0 0.0 0.01 0.13 0.13 94 1024.8
20260904133341 49 247 0.0 0.0 0.01 0.13 0.13 94 1024.8
20260904132845 49 247 0.0 0.0 0.01 0.13 0.13 94 1024.7
20260904132124 49 245 0.0 0.0 0.02 0.13 0.13 94 1024.6
20260904131624 49 247 0.0 0.0 0.02 0.13 0.13 94 1024.6
20260904131345 49 247 0.0 0.0 0.03 0.13 0.13 93 1024.6
20260904130623 49 247 0.0 0.0 0.04 0.13 0.13 93 1024.5
20260904130343 49 245 0.0 0.0 0.05 0.13 0.13 93 1024.5
20260904125624 49 247 0.0 0.0 0.06 0.13 0.13 93 1024.4
20260904125123 49 245 0.0 0.0 0.06 0.13 0.13 93 1024.2
20260904124623 49 247 0.0 1.0 0.06 0.12 0.12 93 1024.4
20260904124123 49 247 0.0 1.0 0.07 0.12 0.12 93 1024.4
20260904123850 49 245 0.0 1.0 0.07 0.12 0.12 93 1024.4
20260904123123 49 245 0.0 0.0 0.08 0.12 0.12 93 1024.4
20260904123112 49 247 0.0 0.0 0.08 0.12 0.12 93 1024.4
20260904122122 50 247 0.0 0.0 0.07 0.11 0.11 93 1024.2
20260904121624 50 247 0.0 0.0 0.08 0.11 0.11 93 1024.2
20260904121122 50 247 0.0 0.0 0.07 0.10 0.10 93 1024.1
20260904120622 50 247 0.0 2.0 0.06 0.09 0.10 93 1024.1
20260904120122 50 247 0.0 2.0 0.06 0.08 0.08 93 1024.1
20260904115622 50 76 0.0 1.0 0.06 0.07 0.07 93 1024.1
20260904115123 50 76 0.0 3.0 0.06 0.07 0.07 92 1024.1
20260904114123 50 104 0.0 2.0 0.04 0.05 0.05 92 1024.0
20260904113627 50 131 0.0 0.0 0.04 0.05 0.05 92 1023.9
20260904113123 50 154 0.0 0.0 0.04 0.04 0.05 92 1023.7
20260904112621 49 151 0.0 0.0 0.04 0.04 0.04 92 1023.7
20260904112349 49 127 0.0 0.0 0.04 0.04 0.04 91 1023.6
20260904111622 50 127 0.0 0.0 0.03 0.03 0.03 91 1023.5
20260904111121 50 127 0.0 0.0 0.03 0.03 0.03 91 1023.4
20260904110622 50 127 0.0 0.0 0.03 0.03 0.03 91 1023.3
20260904110121 50 127 0.0 0.0 0.02 0.02 0.02 90 1023.2
20260904105623 50 127 0.0 2.0 0.01 0.01 0.01 90 1023.1
20260904105121 50 127 0.0 4.0 0.01 0.01 0.01 91 1023.0
20260904104623 49 109 1.0 4.0 0.01 0.01 0.01 91 1022.9
20260904104120 49 96 1.0 3.0 0.01 0.01 0.01 91 1022.7
20260904103621 49 241 0.0 0.0 0.01 0.01 0.01 91 1022.6
20260904103120 49 241 0.0 0.0 0.00 0.00 0.00 91 1022.5
20260904102620 49 241 0.0 0.0 0.00 0.00 0.00 90 1022.3
20260904102120 49 241 0.0 0.0 0.00 0.00 0.00 90 1022.2
20260904101620 49 241 0.0 0.0 0.00 0.00 0.00 90 1022.3
20260904101121 50 241 0.0 0.0 0.00 0.00 0.00 90 1022.2
20260904100620 50 241 0.0 0.0 0.00 0.00 0.00 89 1022.2
20260904100121 50 241 0.0 0.0 0.00 0.00 0.00 89 1022.2
20260904095844 50 224 0.0 0.0 0.00 0.00 0.00 87 1022.2
20260904095119 50 224 0.0 0.0 0.00 0.00 0.00 86 1022.2
20260904094619 50 224 0.0 0.0 0.00 0.00 0.00 85 1022.2
20260904094119 51 224 0.0 0.0 0.00 0.00 0.00 84 1022.2
20260904093620 51 224 0.0 0.0 0.00 0.01 0.00 84 1022.2
20260904093119 51 224 0.0 0.0 0.00 0.01 0.00 82 1022.1
20260904092620 50 224 0.0 0.0 0.00 0.01 0.00 82 1022.1
20260904092119 51 224 0.0 0.0 0.00 0.01 0.00 81 1022.2
20260904091620 51 224 0.0 0.0 0.00 0.01 0.00 79 1022.2
20260904091119 51 224 0.0 0.0 0.00 0.01 0.00 78 1022.1
20260904090618 51 224 0.0 0.0 0.00 0.01 0.00 79 1022.2
20260904090119 51 224 0.0 0.0 0.00 0.01 0.00 79 1022.1
20260904085618 50 224 0.0 0.0 0.00 0.01 0.00 80 1022.2
20260904085119 50 224 0.0 0.0 0.00 0.01 0.00 80 1022.1
20260904084618 50 224 0.0 0.0 0.00 0.01 0.00 81 1022.1
20260904084119 50 224 0.0 0.0 0.00 0.01 0.00 80 1022.1
20260904083618 51 224 0.0 0.0 0.00 0.01 0.00 80 1022.1
20260904083119 51 224 0.0 0.0 0.00 0.01 0.00 79 1022.2
20260904082617 51 224 0.0 0.0 0.00 0.01 0.00 79 1022.1
20260904082117 51 224 0.0 0.0 0.00 0.01 0.00 78 1022.2
20260904081617 51 224 0.0 0.0 0.00 0.01 0.00 78 1022.2
20260904081118 51 224 0.0 0.0 0.00 0.01 0.00 77 1022.2
20260904080618 51 224 0.0 0.0 0.00 0.01 0.00 78 1022.2
20260904080339 51 224 0.0 0.0 0.00 0.01 0.00 78 1022.2
20260904075618 52 224 0.0 0.0 0.00 0.01 0.00 78 1022.2
20260904075118 52 224 0.0 0.0 0.00 0.01 0.00 78 1022.3
20260904074617 52 224 0.0 0.0 0.00 0.01 0.00 78 1022.2
20260904074343 52 224 0.0 0.0 0.00 0.01 0.00 78 1022.2
20260904073616 52 224 0.0 0.0 0.00 0.01 0.00 77 1022.2
20260904073117 52 224 0.0 0.0 0.00 0.01 0.00 78 1022.3
20260904072617 52 224 0.0 2.0 0.00 0.01 0.00 77 1022.2
20260904072118 52 224 0.0 2.0 0.00 0.01 0.00 77 1022.2
20260904071616 52 243 0.0 2.0 0.00 0.01 0.00 77 1022.1
20260904071117 52 235 0.0 1.0 0.00 0.01 0.00 78 1022.1
20260904070615 52 257 0.0 0.0 0.00 0.01 0.00 78 1022.1
20260904070340 52 257 0.0 0.0 0.00 0.01 0.00 78 1022.1
20260904065615 52 257 0.0 1.0 0.00 0.01 0.01 78 1022.2
20260904065115 52 257 0.0 1.0 0.00 0.01 0.01 78 1022.1
20260904064834 52 257 0.0 0.0 0.00 0.01 0.01 78 1022.0
20260904064122 52 257 0.0 2.0 0.00 0.01 0.01 79 1022.1
20260904063616 52 257 0.0 2.0 0.00 0.01 0.01 79 1022.1
20260904063336 52 244 0.0 0.0 0.00 0.01 0.01 79 1022.0
20260904062844 52 244 0.0 0.0 0.00 0.01 0.01 79 1022.0
20260904062342 52 244 0.0 0.0 0.00 0.01 0.01 79 1022.0
20260904061838 52 244 0.0 0.0 0.00 0.01 0.01 78 1022.0
20260904061116 52 243 0.0 0.0 0.00 0.01 0.01 78 1022.0
20260904060614 52 243 0.0 1.0 0.00 0.01 0.01 78 1021.9
20260904060115 52 243 0.0 1.0 0.00 0.01 0.01 79 1021.9
20260904055614 52 186 0.0 0.0 0.00 0.01 0.01 79 1022.0
20260904055343 52 186 0.0 0.0 0.00 0.01 0.01 78 1021.9
20260904054613 52 186 0.0 0.0 0.00 0.01 0.01 78 1022.1
20260904054605 52 186 0.0 0.0 0.00 0.01 0.01 78 1022.1
20260904053613 53 182 0.0 0.0 0.00 0.01 0.01 78 1022.1
20260904053115 53 182 0.0 0.0 0.00 0.01 0.01 78 1022.1
20260904052614 53 182 0.0 0.0 0.00 0.01 0.01 77 1022.1
20260904052113 53 182 0.0 0.0 0.00 0.01 0.01 77 1022.0
20260904051614 53 182 0.0 0.0 0.00 0.01 0.01 76 1022.0
20260904051112 53 251 0.0 2.0 0.00 0.01 0.01 76 1022.1
20260904050614 53 254 0.0 2.0 0.00 0.01 0.01 76 1022.1
20260904050114 54 254 0.0 0.0 0.00 0.01 0.01 76 1022.2
20260904045613 54 309 0.0 0.0 0.00 0.01 0.01 75 1022.1
20260904045113 54 309 0.0 1.0 0.00 0.01 0.01 74 1022.1
20260904044613 55 309 0.0 1.0 0.00 0.01 0.01 73 1022.1
20260904044239 55 248 1.0 3.0 0.00 0.01 0.01 73 1022.2
20260904044142 55 303 1.0 2.0 0.00 0.01 0.01 72 1022.1
20260904043924 55 250 0.0 3.0 0.00 0.01 0.01 72 1022.2
20260904043055 54 248 0.0 2.0 0.00 0.01 0.01 73 1022.2
20260904042114 54 238 0.0 0.0 0.00 0.01 0.01 74 1022.2
20260904041838 54 238 0.0 2.0 0.00 0.01 0.01 73 1022.2
20260904041114 54 238 0.0 2.0 0.00 0.01 0.01 74 1022.2
20260904040834 54 251 0.0 0.0 0.00 0.01 0.01 74 1022.1
20260904040340 54 251 0.0 0.0 0.00 0.01 0.01 74 1022.0
20260904035615 54 240 0.0 0.0 0.00 0.01 0.01 74 1022.1
20260904035111 54 240 0.0 0.0 0.00 0.01 0.01 74 1022.0
20260904034612 55 240 0.0 0.0 0.00 0.01 0.01 75 1022.0
20260904034111 55 248 0.0 0.0 0.00 0.01 0.01 74 1022.0
20260904033612 55 248 0.0 0.0 0.00 0.01 0.01 73 1021.9
20260904033334 55 248 0.0 0.0 0.00 0.01 0.01 73 1021.9
20260904032612 55 248 0.0 0.0 0.00 0.01 0.01 73 1021.9
20260904032111 55 248 0.0 0.0 0.00 0.01 0.01 73 1021.9
20260904031611 55 257 0.0 0.0 0.00 0.01 0.01 73 1021.9
20260904031111 55 340 0.0 0.0 0.00 0.01 0.01 73 1021.9
20260904030610 55 340 0.0 0.0 0.00 0.01 0.01 73 1021.8
20260904030109 55 340 0.0 0.0 0.00 0.01 0.01 73 1021.8
20260904025610 55 272 0.0 0.0 0.00 0.01 0.01 72 1021.8
20260904025333 55 235 0.0 0.0 0.00 0.01 0.01 72 1021.8
20260904024610 55 235 0.0 0.0 0.00 0.01 0.01 72 1021.8
20260904024109 55 216 0.0 0.0 0.00 0.01 0.01 71 1021.8
20260904023610 56 214 0.0 0.0 0.00 0.01 0.01 70 1021.8
20260904023109 56 358 0.0 0.0 0.00 0.01 0.01 68 1021.7
20260904022831 56 358 0.0 0.0 0.00 0.01 0.01 66 1021.6
20260904022108 57 13 0.0 0.0 0.00 0.01 0.01 64 1021.5
20260904021609 57 307 0.0 0.0 0.00 0.01 0.01 64 1021.5
20260904021107 57 334 0.0 0.0 0.00 0.01 0.01 63 1021.5
20260904020609 57 314 0.0 0.0 0.00 0.01 0.01 62 1021.5
20260904020107 58 314 0.0 3.0 0.00 0.01 0.01 61 1021.4
20260904015608 58 324 0.0 3.0 0.00 0.01 0.01 61 1021.5
20260904015107 58 292 1.0 3.0 0.00 0.01 0.01 60 1021.4
20260904014607 58 313 1.0 4.0 0.00 0.01 0.01 60 1021.3
20260904014115 58 305 1.0 4.0 0.00 0.01 0.01 60 1021.4
20260904013608 58 300 1.0 3.0 0.00 0.01 0.01 60 1021.4
20260904013109 58 299 0.0 4.0 0.00 0.01 0.01 61 1021.5
20260904012608 58 11 1.0 4.0 0.00 0.01 0.01 60 1021.4
20260904012109 58 296 1.0 5.0 0.00 0.01 0.01 60 1021.5
20260904011836 58 319 2.0 10.0 0.00 0.01 0.01 60 1021.5
20260904011107 58 219 2.0 10.0 0.00 0.01 0.01 60 1021.4
20260904010608 58 302 2.0 5.0 0.00 0.01 0.01 60 1021.4
20260904010106 58 312 2.0 4.0 0.00 0.01 0.01 60 1021.4
20260904005608 58 316 1.0 6.0 0.00 0.01 0.01 60 1021.4
20260904005108 58 293 1.0 6.0 0.00 0.01 0.01 60 1021.4
20260904004835 58 324 1.0 3.0 0.00 0.01 0.01 59 1021.4
20260904004107 58 306 1.0 4.0 0.00 0.01 0.01 60 1021.4
20260904003830 58 293 2.0 4.0 0.00 0.01 0.01 61 1021.4
20260904003106 58 300 2.0 4.0 0.00 0.01 0.01 62 1021.4
20260904002607 58 298 1.0 4.0 0.00 0.01 0.01 63 1021.4
20260904002107 58 300 2.0 4.0 0.00 0.01 0.01 63 1021.4
20260904001606 59 320 1.0 3.0 0.00 0.01 0.01 62 1021.4
20260904001109 59 312 1.0 3.0 0.00 0.01 0.01 62 1021.4
20260904001100 59 306 1.0 3.0 0.00 0.01 0.01 61 1021.4
20260904000108 60 312 1.0 3.0 0.00 0.01 0.01 61 1021.4
20260903235610 60 300 1.0 3.0 0.00 0.01 0.01 61 1021.4
20260903235105 60 329 1.0 3.0 0.00 0.01 0.01 61 1021.4
20260903234608 60 303 2.0 3.0 0.00 0.01 0.01 61 1021.5
20260903234106 60 351 2.0 6.0 0.00 0.01 0.01 58 1021.4
20260903233606 60 324 2.0 6.0 0.00 0.01 0.01 57 1021.4
20260903233106 60 331 2.0 6.0 0.00 0.01 0.01 56 1021.4
20260903232606 60 290 1.0 6.0 0.00 0.01 0.01 57 1021.5
20260903232105 60 298 2.0 6.0 0.00 0.01 0.01 56 1021.4
20260903231606 60 355 2.0 6.0 0.00 0.01 0.01 56 1021.5
20260903231105 60 309 2.0 6.0 0.00 0.01 0.01 55 1021.5
20260903230610 60 3 1.0 5.0 0.00 0.01 0.01 57 1021.5
20260903230105 60 309 2.0 6.0 0.00 0.01 0.01 56 1021.6
20260903225601 60 331 2.0 6.0 0.00 0.01 0.01 56 1021.8
20260903225105 60 331 2.0 5.0 0.00 0.01 0.01 57 1021.6
20260903224604 60 343 2.0 5.0 0.00 0.01 0.01 58 1021.6
20260903224329 60 290 2.0 5.0 0.00 0.01 0.01 58 1021.6
20260903223604 60 306 2.0 5.0 0.00 0.01 0.01 57 1021.7
20260903223106 60 296 3.0 5.0 0.00 0.01 0.01 58 1021.6
20260903222604 61 300 2.0 5.0 0.00 0.01 0.01 56 1021.6
20260903222104 61 334 2.0 5.0 0.00 0.01 0.01 56 1021.5
20260903221601 61 319 2.0 5.0 0.00 0.01 0.01 56 1021.5
20260903221322 60 343 1.0 4.0 0.00 0.01 0.01 59 1021.4
20260903220604 60 281 1.0 6.0 0.00 0.01 0.01 60 1021.4
20260903215604 62 293 2.0 5.0 0.00 0.01 0.01 55 1021.4
20260903215549 63 48 4.0 9.0 0.00 0.01 0.01 51 1021.4
20260903214603 66 47 5.0 10.0 0.00 0.01 0.01 45 1021.4
20260903214105 66 107 4.0 10.0 0.00 0.01 0.01 41 1021.0
20260903213100 66 99 4.0 14.0 0.00 0.01 0.01 41 1021.1
20260903212559 66 130 5.0 14.0 0.00 0.01 0.01 42 1021.0
20260903212326 66 102 4.0 13.0 0.00 0.01 0.01 43 1021.0
20260903211602 66 93 5.0 15.0 0.00 0.01 0.01 43 1021.0
20260903211103 65 107 6.0 16.0 0.00 0.01 0.01 43 1020.9
20260903210602 66 99 7.0 16.0 0.00 0.01 0.01 43 1020.9
20260903205601 65 128 10.0 17.0 0.00 0.01 0.01 44 1020.8
20260903205101 65 147 8.0 14.0 0.00 0.01 0.01 43 1020.7
20260903204602 65 58 8.0 13.0 0.00 0.01 0.01 44 1020.8
20260903204540 65 121 6.0 13.0 0.00 0.01 0.01 45 1020.7
20260903203603 65 96 8.0 16.0 0.00 0.01 0.01 45 1020.7
20260903203100 65 100 8.0 16.0 0.00 0.01 0.01 45 1020.6
20260903202601 65 133 7.0 16.0 0.00 0.01 0.01 46 1020.6
20260903202320 66 147 8.0 16.0 0.00 0.01 0.01 44 1020.7
20260903201559 66 130 8.0 13.0 0.00 0.01 0.01 44 1020.7
20260903201100 67 118 7.0 18.0 0.00 0.01 0.01 44 1020.7
20260903200559 67 140 9.0 18.0 0.00 0.01 0.01 43 1020.6
20260903200100 67 62 5.0 11.0 0.00 0.01 0.01 44 1020.7
20260903195826 65 96 2.0 12.0 0.00 0.01 0.01 46 1020.8
20260903195102 66 114 6.0 12.0 0.00 0.01 0.01 43 1020.8
20260903194600 66 131 5.0 15.0 0.00 0.01 0.01 43 1020.8
20260903194319 67 141 8.0 15.0 0.00 0.01 0.01 42 1020.8
20260903193600 67 52 8.0 15.0 0.00 0.01 0.01 45 1020.7
20260903193100 67 140 6.0 12.0 0.00 0.01 0.01 45 1020.7
20260903192821 66 59 4.0 12.0 0.00 0.01 0.01 45 1020.7
20260903192321 66 114 7.0 12.0 0.00 0.01 0.01 47 1020.6
20260903191823 66 118 6.0 16.0 0.00 0.01 0.01 47 1020.5
20260903191101 66 133 5.0 16.0 0.00 0.01 0.01 46 1020.6
20260903190601 66 59 5.0 13.0 0.00 0.01 0.01 46 1020.6
20260903190105 66 61 6.0 13.0 0.00 0.01 0.01 47 1020.6
20260903185559 66 54 6.0 13.0 0.00 0.01 0.01 40 1020.6
20260903185100 66 120 6.0 13.0 0.00 0.01 0.01 40 1020.6
20260903184559 66 69 5.0 11.0 0.00 0.01 0.01 42 1020.6
20260903184059 66 104 6.0 11.0 0.00 0.01 0.01 42 1020.6
20260903183819 65 102 3.0 9.0 0.00 0.01 0.01 45 1020.7
20260903183056 65 76 5.0 7.0 0.00 0.01 0.01 45 1020.7
20260903182813 65 155 2.0 7.0 0.00 0.01 0.01 43 1020.7
20260903182318 65 128 4.0 10.0 0.00 0.01 0.01 46 1020.7
20260903181558 65 55 4.0 10.0 0.00 0.01 0.01 47 1020.7
20260903181058 65 107 4.0 9.0 0.00 0.01 0.01 46 1020.7
20260903180604 64 134 2.0 7.0 0.00 0.01 0.01 47 1020.8
20260903180318 64 207 2.0 7.0 0.00 0.01 0.01 46 1020.7
20260903175558 64 75 2.0 6.0 0.00 0.01 0.01 45 1020.7
20260903175057 64 89 2.0 5.0 0.00 0.01 0.01 46 1020.7